Regional Weather Roundup
Issued by NWS

Home | Current Version | Previous Version | Graphics & Text | Print | Product List | Glossary On
Versions: 1 2 3 4 5 6 7 8 9 10 11 12 13 14 15 16 17 18 19 20 21 22 23 24 25 26 27 28 29 30 31 32 33 34 35 36 37 38 39 40 41 42 43 44 45 46 47 48 49 50
000
ASUS43 KDTX 232310
RWRMI
MICHIGAN HOURLY REGIONAL WEATHER ROUNDUP
NATIONAL WEATHER SERVICE DETROIT/PONTIAC MI
700 PM EDT SUN JUL 23 2017

NOTE: "FAIR" INDICATES FEW OR NO CLOUDS BELOW 12,000 FEET WITH NO
SIGNIFICANT WEATHER AND/OR OBSTRUCTION TO VISIBILITY.

MIZ047>049-052>055-059>063-066>070-074>076-081>083-240000-
SOUTHEAST LOWER MICHIGAN

CITY           SKY/WX    TMP DP  RH WIND       PRES   REMARKS
ADRIAN         FAIR      78  70  76 CALM      29.77R
ALMA           FAIR      80  59  48 NW7       29.74S
ANN ARBOR      FAIR      81  67  62 SW6       29.74S
BAD AXE        PTSUNNY   64  63  95 CALM      29.75F
CARO           LGT RAIN  69  64  85 CALM      29.75R
DETROIT CITY   FAIR      82  69  64 S7        29.72F
DETROIT        PTSUNNY   83  65  54 VRB5      29.73F
FLINT          FAIR      82  67  60 W8        29.73F
GROSSE ILE     FAIR      79  71  77 S10       29.73S
HILLSDALE      CLOUDY    79  68  69 CALM      29.77S
HOWELL         LGT RAIN  73  64  74 CALM      29.75S

CITY           SKY/WX    TMP DP  RH WIND       PRES   REMARKS
JACKSON        FAIR      77  68  73 S6        29.77S
LAMBERTVILLE   FAIR      75  70  84 S3        29.75S
LANSING        FAIR      81  58  45 NW10      29.76S
LAPEER         FAIR      81  64  57 NW3       29.74S
MASON          FAIR      79  65  63 NW6       29.76R
MONROE         FAIR      76  70  80 S7        29.74S
MT. CLEMENS    PTSUNNY   80  70  71 S6        29.71S
PONTIAC        PTSUNNY   80  63  55 NW7       29.73S
PORT HOPE        N/A     67  64  90 E12       29.74R
PORT HURON     FAIR      82  66  57 W3        29.71F
TRI CITIES     PTSUNNY   79  67  66 N14       29.74R
MIDLAND        FAIR      79  63  58 NW9G16    29.73R
TROY           FAIR      83  63  49 NW3       29.75S
SAGINAW HB     PTSUNNY   75  64  69 N14       29.73R
$$
MIZ043>046-050>051-056>058-064>065-071>073-077>080-240000-
SOUTHWEST LOWER MICHIGAN

CITY           SKY/WX    TMP DP  RH WIND       PRES   REMARKS
BATTLE CREEK   FAIR      81  65  58 NW13      29.79R
BENTON HARBOR  CLOUDY    76  66  71 VRB5      29.78F
BIG RAPIDS     PTSUNNY   74  61  62 NW12G18   29.78R
COLDWATER      FAIR      83  62  49 NW10      29.78R
FREMONT        FAIR      77  64  63 NW8       29.78S
HOLLAND        PTSUNNY   76  67  73 NW7       29.79S
GRAND RAPIDS   PTSUNNY   80  64  58 NW13      29.77R
IONIA          FAIR      81  61  50 W13       29.76R
KALAMAZOO      PTSUNNY   80  61  52 NW12      29.79R
LUDINGTON      CLOUDY    70  64  82 N8        29.81R
MARSHALL       FAIR      82  63  52 W7G17     29.77R
MOUNT PLEASANT FAIR      81  57  44 W6        29.74S
MUSKEGON       PTSUNNY   77  68  73 NW6       29.78S
SOUTH HAVEN    PTSUNNY   76  70  82 N5        29.79S
$$
MIZ016>042-240000-
NORTHERN LOWER MICHIGAN

CITY           SKY/WX    TMP DP  RH WIND       PRES   REMARKS
ALPENA         CLOUDY    65  64  97 NE10      29.79R
BEAVER ISLAND  DRIZZLE   62  61  97 NE8       29.85R
BELLAIRE       CLOUDY    72  60  66 N5        29.78S
CADILLAC       FAIR      74  61  61 N10       29.79S
CHARLEVOIX     PTSUNNY   68  60  74 NE9       29.84R
FRANKFORT      PTSUNNY   70  64  82 N8        29.81S
GAYLORD        FAIR      67  57  70 NE13G21   29.81S
GRAYLING       LGT RAIN  69  62  78 N8        29.80S
HARBOR SPRINGS CLOUDY    64  60  86 NE12      29.83R
HOUGHTON LAKE  FAIR      71  61  70 N6        29.79R
MANISTEE       FAIR      72  63  73 NW12G20   29.80R
OSCODA         FAIR      71  64  77 NW8       29.73S
PELLSTON       CLOUDY    63  59  87 NE12      29.84R
ROGERS CITY    CLOUDY    63  60  93 NE7       29.82S
TRAVERSE CITY  FAIR      73  62  68 NW8       29.78S
$$
MIZ007>008-015-240000-
EASTERN UPPER MICHIGAN

CITY           SKY/WX    TMP DP  RH WIND       PRES   REMARKS
KINROSS        CLOUDY    59  56  89 NE13      29.88R
MACKINAC ISLAN LGT RAIN  60  60 100 NE14G21   29.85R
NEWBERRY       CLOUDY    57  56  97 NE9       29.89R
S. S. MARIE    LGT RAIN  59  55  87 NE8G20    29.88R
MUNISING         N/A     61  59  93 NE18      29.92R
$$
MIZ004>006-011>014-085-240000-
CENTRAL UPPER MICHIGAN

CITY           SKY/WX    TMP DP  RH WIND       PRES   REMARKS
MANISTIQUE     CLOUDY    60  57  89 N14       29.87R FOG
ESCANABA       CLOUDY    63  58  83 N12G18    29.88R
MENOMINEE      CLOUDY    67  57  70 N15G26    29.88R
SAWYER-GWINN   CLOUDY    55  54  94 N13       29.95R
$$
MIZ001>003-009>011-084-240000-
WESTERN UPPER MICHIGAN

CITY           SKY/WX    TMP DP  RH WIND       PRES   REMARKS
IRON MOUNTAIN  CLOUDY    64  54  69 N15       29.93R
HOUGHTON       CLOUDY    64  53  67 E8        29.98R
COPPER HARBOR    N/A     59  52  77 N5        29.97S
IRONWOOD       CLOUDY    60  57  89 N9        30.00R
$$

ABBREVIATIONS USED IN REMARKS
   TC - TEMPERATURE IN CELSIUS
  WCI - WIND CHILL INDEX
   HX - HEAT INDEX
  VSB - VISIBILITY





USA.gov is the U.S. government's official web portal to all federal, state and local government web resources and services.